www.pogodaiklimat.ru

Погода и климат >> Архив погоды >> Китай >> Хэбэй >> Вэйчан


ПОГОДА в Вэйчане

  • Прогноз погоды в Вэйчане
  • Монитор погоды в Вэйчане

АРХИВ ПОГОДЫ в Вэйчане

Время (UTC), дата Ветер
(напр.,м/с)
 
Видим.   Явления Облачность Т
(С)
Тd
(С)
f
(%)
Тe
(С)
Тes
(С)
Комфортность P
(гПа)
Po
(гПа)
Тmin
(С)
Tmax
(С)
R
(мм)
R24
(мм)
S
(см)
18 19.05 СЗ 3 30 км ?/? +4.9 -0.9 66 +2 +2 1009.1 909.7 +13.0
21 19.05 З 3 30 км н/о +5.2 -2.2 59 +2 +2 1008.2 909.0
00 20.05 СЗ 5 30 км 9/9 600 м
[]
+7.9 -2.7 47 +5 +5 1009.1 910.7
03 20.05 З 6 30 км 8/8 600 м
[]
+10.8 -3.3 37 +8 +10 1010.3 912.7
06 20.05 З 7 30 км 8/8 600 м
[]
+13.4 -0.6 38 +11 +12 1009.4 912.7 +4.6
09 20.05 СЗ 6
{22}
30 км 6/6 600 м
[]
+14.5 -1.2 34 +13 +14 1007.5 911.4
12 20.05 СЗ 4
{22}
30 км ясно +13.4 -3.8 30 +12 +12 1007.7 905.6
18 20.05 С 1 30 км ?/? +6.7 -2.5 52 +6 +6 1007.8 909.1 +15.2
21 20.05 ЮВ 1 30 км н/о +2.3 -2.6 70 +1 +1 1008.0 907.8
00 21.05 Ю 2 30 км ясно +10.2 -0.6 47 +9 +16 1006.6 905.0
03 21.05 С 7 30 км ясно +17.7 -6.2 19 +17 +22 1005.1 910.2
06 21.05 З 7 30 км ясно +19.6 -6.1 17 +19 +23 1005.0 910.7 +1.8
09 21.05 З 5 30 км ясно +20.5 -6.2 16 +20 +22 1004.8 910.8
12 21.05 СВ 1 30 км ясно +14.9 -2.5 30 +16 +16 1005.4 909.6
18 21.05 СВ 2 30 км ?/? +5.3 -0.7 65 +3 +3 1005.9 906.9 +20.8
21 21.05 СВ 2 30 км н/о +4.6 -0.6 69 +2 +2 1006.3 907.0
00 22.05 С 3 30 км 3/3
[]
+12.5 +0.6 44 +11 +16 1006.2 909.6
03 22.05 В 1 30 км 8/8
[]
+21.4 -2.5 20 +21 +25 комфорт 1004.4 910.7
06 22.05 З 3 30 км ясно +26.2 -3.4 14 +24 +37 комфорт 1001.9 909.9 +4.5
09 22.05 С 2 30 км ясно +26.7 -3.0 14 +24 +29 комфорт 1002.1 910.2
12 22.05 С 2 30 км ясно +17.7 +0.4 31 +18 +18 1004.1 903.9
18 22.05 С 3 30 км ?/? +9.1 +2.0 61 +7 +7 1005.7 908.0 +27.0
21 22.05 С 2 30 км н/о +6.8 +1.9 71 +5 +5 1006.7 908.1
00 23.05 СВ 1 30 км ясно +13.9 +2.5 46 +14 +23 1007.0 910.7
03 23.05 Ю 3 30 км ясно +24.9 +5.7 29 +25 +40 комфорт 1004.2 911.6
06 23.05 Ю 4 30 км ясно +31.6 +5.2 19 +30 +41 жарко 1001.4 911.0 +6.1
09 23.05 З 3 30 км ясно +33.6 -6.9 7 +29 +33 жарко 1000.7 910.9
12 23.05 В 1 30 км ясно +21.8 +7.2 39 +23 +23 комфорт 1002.9 909.5
18 23.05 С 2 30 км ?/? +13.0 +6.1 63 +12 +12 1004.5 908.2 +33.7
21 23.05 С 3 30 км н/о +12.3 +6.4 67 +11 +11 1004.4 907.9
00 24.05 С 2 30 км 8/8
[]
+15.6 +7.9 60 +16 +17 1006.3 910.6
03 24.05 ЮЗ 2 23 км 9/9
[]
+24.2 +9.8 40 +25 +27 комфорт 1004.7 911.8
06 24.05 Ю 6 30 км 8/8 600 м
[]
+30.1 +2.4 17 +28 +29 жарко 1001.5 910.6 +11.5
09 24.05 Ю 6 30 км 8/8
[]
+29.0 -1.2 14 +26 +27 жарко 1001.2 910.0
12 24.05 В 2 30 км 5/5
[]
+20.1 +2.0 30 +21 +21 комфорт 1003.7 909.7
18 24.05 В 1 30 км ?/? +12.3 +5.7 64 +12 +12 1003.6 907.1 +30.7
21 24.05 С 2 24 км н/о +9.7 +6.4 80 +8 +8 1004.6 907.2
00 25.05 З 1 16 км 3/3
[]
+17.0 +7.6 54 +18 +24 1005.0 909.9
03 25.05 Ю 6 20 км ясно +25.4 +10.5 39 +26 +34 жарко 1002.8 910.4
06 25.05 Ю 4 28 км 8/8
[]
+28.3 +10.0 32 +29 +31 жарко 1001.6 910.2 +9.5
09 25.05 Ю 4 30 км 4/4
[]
+28.0 +8.3 29 +28 +30 жарко 1000.9 909.5
12 25.05 З 2 29 км 10/10 600 м
[]
+24.7 +9.8 39 +26 +26 жарко 1002.5 910.0
18 25.05 В 1 9000 м ?/? +14.6 +14.0 96 +15 +15 1004.4 908.6 +28.9 5
21 25.05 Ю 1 2400 м дымка н/о +14.8 +14.2 96 +15 +15 1005.0 909.2
00 26.05 СВ 2 30 км слаб. ливневой дождь 10/10 600 м
[]
+13.4 +12.0 91 +13 +13 1004.6 908.4 6
03 26.05 З 2 8000 м слаб. ливневой дождь 10/10 600 м
[]
+11.8 +10.7 93 +11 +11 1007.1 910.1
06 26.05 С 3 30 км слаб. ливневой дождь 9/9 600 м
[]
+11.3 +8.3 82 +9 +11 1007.2 910.1 +10.5 23
09 26.05 С 2 30 км 10/10 600 м
[]
+10.9 +7.0 77 +10 +10 1008.7 911.3
12 26.05 С 3 30 км слаб. ливневой дождь 10/10 600 м
[]
+10.0 +7.4 84 +8 +8 1011.4 909.3 0.4

 

Местоположение метеостанции Вэйчан (Хэбэй, Китай): широта 41.93 долгота 117.75 высота над уровнем моря 844 м.

В архиве по умолчанию представлена погода в Вэйчане за последнюю неделю. Архивные данные за месяц целиком и за предыдущие месяцы, начиная с января 2011 года, Вы можете получить, выбрав интересующий диапазон дат из раскрывающегося списка и нажав кнопку "Ввод!".


*Определитесь, кто Вы:
робот инопланетянин человек

Внимание! Время в таблицах - всемирное. Для получения местного времени необходимо прибавить поправку, которая равна 8 ч.

Смотрите также архив погоды в соседних городах и на ближайших метеорологических станциях:

Погода в Чифэне (Внутренняя Монголия, Китай) (107 км)
Погода в Чэндэ (Хэбэй, Китай) (107 км)
Погода в Долуне (Внутренняя Монголия, Китай) (110 км)
Погода в Фэннине (Хэбэй, Китай) (122 км)
Погода в Линьси (Внутренняя Монголия, Китай) (187 км)
Погода в Цинлуне (Хэбэй, Китай) (198 км)
Погода в Чаояне (Ляонин, Китай) (228 км)
Погода в Дабейва (Внутренняя Монголия, Китай) (247 км)
Погода в Таншане (Хэбэй, Китай) (254 км)
Погода в Хуайлае (Хэбэй, Китай) (254 км)

Пояснения к столбцам:

Ветер - указаны скорость ветра в м/с - средняя за 10 мин, порывы в срок и между сроками (в фигурных скобках) и направление, откуда дует ветер: С - северный, СВ - северо-восточный, В - восточный, ЮВ - юго-восточный, Ю - южный, ЮЗ - юго-западный, З - западный, СЗ - северо-западный.
Видимость - горизонтальная дальность видимости в метрах или километрах. При видимости от 1 до 10 км при отсутствии осадков обычно наблюдается дымка, при ухудшении видимости до 1 км и менее - туман. В сухую погоду видимость может ухудшаться дымом, пылью или мглою.
Явления - указаны атмосферные явления, наблюдавшиеся в срок или в последний час перед сроком; фигурными скобками обозначены явления, наблюдавшиеся между сроками (за 1-3 часа до срока); квадратными скобками обозначены град или гололедные отложения с указанием их диаметра в мм.
Облачность - указаны через наклонную черту общая и нижняя облачность в баллах и высота нижней границы облаков в метрах; квадратными скобками обозначены формы облаков: Ci - перистые, Cs - перисто-слоистые, Cc - перисто-кучевые, Ac - высококучевые, As - высокослоистые, Sc - слоисто-кучевые, Ns - слоисто-дождевые, Cu - кучевые, Cb - кучево-дождевые. Подробнее классификацию облаков см. в Атласе облаков (PDF).
T - Температура воздуха - температура, измеренная на высоте 2 м над землей.
Td - Температура точки росы - температура, при понижении до которой содержащийся в воздухе водяной пар достигнет насыщения.
f - Относительная влажность воздуха - влажноcть воздуха, измеренная на высоте 2 м над землей.
Te - Эффективная температура - температура, которую ощущает одетый по сезону человек в тени. Характеристика душности погоды. При расчете учитывается влияние влажности воздуха и скорости ветра на теплоощущения человека.
Tes - Эффективная температура на солнце - температура, которую ощущает человек, с поправкой на солнечный нагрев. Характеристика знойности погоды. Зависит от высоты солнца над горизонтом, облачности и скорости ветра. Ночью, в пасмурную погоду, а также при ветре 12 м/с и более поправка равна нулю.
P - Атмосферное давление - приведенное к уровню моря атмосферное давление.
Po - Атмосферное давление - измеренное на уровне метеостанции атмосферное давление.
Tmin - Минимальная температура - минимум температуры воздуха на высоте 2 м над землей.
Tmax - Максимальная температура - максимум температуры воздуха на высоте 2 м над землей.
R - Количество осадков - Количество выпавших осадков за период времени, мм. При наведении курсора мыши на число - период времени, за который выпало указанное количество осадков.
R24 - Количество осадков - Количество выпавших осадков за 24 часа, мм.
S - Снежный покров - Высота снежного покрова, см. При наведении курсора мыши на число - состояние снежного покрова и степень покрытия местности в баллах.